Theta_e
312 312 311 309 309 312 313 314 312 313 316 316 317 318 318 319 319 316 315 316 319 320 322 322 323 322 322 322 321 319 310 311 318 320 321 321 321 322 322 323 324 324 327 325 324
311 311 310 309 311 313 314 313 312 314 316 317 317 318 318 318 317 313 314 317 319 319 319 319 320 320 322 320 321 316 311 317 320 319 318 318 321 322 322 323 323 324 325 324 324
311 310 309 310 313 315 315 314 314 316 316 317 317 317 316 317 316 317 319 319 320 320 320 321 321 320 319 321 321 316 314 319 320 321 320 319 319 320 320 320 323 324 324 324 324
310 309 309 312 314 315 315 314 315 316 316 317 317 316 315 319 315 318 320 320 320 320 320 321 321 320 318 316 320 318 319 320 320 320 320 319 320 319 320 322 323 323 323 322 322
310 310 310 313 316 316 316 314 313 313 314 314 314 314 320 321 317 316 320 320 320 320 320 320 321 320 317 318 319 319 319 320 320 320 320 320 320 319 319 321 322 322 322 321 322
311 311 311 313 316 317 316 315 313 313 313 313 313 318 320 321 318 319 320 320 320 320 320 320 320 321 320 319 318 319 319 320 319 320 320 320 320 320 321 320 321 321 321 320 320
311 312 312 313 315 316 316 316 314 313 313 315 315 318 320 321 319 319 320 320 320 320 320 320 320 321 321 318 322 321 318 316 318 319 320 321 319 319 321 321 321 320 320 320 320
311 313 313 314 315 315 314 314 314 313 313 313 314 318 322 319 319 320 320 320 320 320 321 321 321 322 322 322 321 319 316 316 316 317 320 319 317 318 321 320 320 319 320 320 320
311 311 313 314 314 314 314 313 312 313 313 313 315 321 322 321 320 321 320 320 321 321 321 321 321 321 322 318 316 315 318 318 318 317 319 318 317 317 320 319 320 320 320 320 320
310 311 312 312 312 312 312 314 318 315 313 313 314 315 322 321 321 320 321 321 321 322 322 323 321 317 314 316 319 317 318 317 319 319 318 317 316 318 320 320 320 320 320 320 321
313 310 311 312 312 312 315 323 322 323 321 318 321 320 323 321 321 321 321 321 321 321 319 321 317 317 319 317 318 319 319 318 318 318 318 318 316 316 318 318 318 319 319 320 319
312 310 311 312 313 316 320 321 319 320 321 322 323 323 322 321 320 321 321 321 320 318 318 316 317 319 319 320 320 318 318 318 317 317 317 315 315 315 316 317 318 317 318 319 321
311 310 311 313 319 320 322 321 322 322 321 321 324 324 322 320 320 321 322 321 320 319 319 318 318 322 320 319 318 318 318 318 317 316 315 316 316 316 317 318 319 319 319 321 323
310 311 313 317 323 321 322 321 319 319 321 325 325 321 320 320 320 322 322 322 321 321 320 320 321 321 320 320 317 318 318 318 318 316 316 317 315 316 316 318 318 319 320 319 320
311 315 322 321 323 323 321 320 320 322 332 323 319 320 321 320 322 323 323 322 321 321 321 321 321 320 319 319 319 319 317 317 318 317 313 314 315 315 316 318 316 319 320 319 319
311 318 320 324 321 321 321 321 321 325 331 323 321 320 320 320 321 323 322 322 322 320 321 320 320 319 319 319 319 317 315 314 313 313 315 317 317 314 318 318 317 317 320 319 319
316 314 317 322 321 319 320 320 322 329 327 323 321 320 319 321 321 323 323 320 320 322 320 319 319 319 319 318 316 314 312 313 314 313 314 316 316 313 317 317 317 317 319 319 319
316 317 318 319 320 320 324 320 324 327 324 323 322 320 321 322 323 323 321 321 319 319 318 320 320 318 317 318 317 316 313 312 316 316 316 315 317 315 316 317 317 317 319 318 318
317 324 324 322 320 319 326 324 326 324 323 324 322 322 322 323 322 321 322 322 320 319 319 319 320 317 315 317 317 316 314 314 315 316 317 315 316 316 315 315 315 318 317 316 316
324 325 328 321 320 325 325 327 322 322 322 323 322 322 321 322 322 321 322 322 321 319 317 317 316 316 318 317 316 316 314 313 312 317 319 317 320 318 316 314 312 313 316 316 316
323 328 322 320 319 324 326 329 321 321 321 320 320 321 322 321 320 319 322 321 321 318 318 316 313 315 317 317 317 314 314 314 313 316 318 320 316 315 314 312 311 313 316 314 313
319 324 321 319 321 323 322 322 321 321 320 319 321 321 319 319 319 319 321 321 318 317 318 316 314 317 318 314 314 316 316 314 316 316 315 317 314 313 313 313 313 313 312 312 312
320 322 321 320 317 317 319 321 319 318 319 318 319 319 318 318 318 319 319 319 318 317 316 313 309 308 312 312 314 317 316 314 312 310 313 312 313 314 313 313 313 313 313 312 311
321 317 321 321 319 318 318 321 318 318 319 318 317 318 318 317 316 317 316 318 317 319 316 314 311 311 312 314 315 317 316 315 315 316 316 315 317 314 313 313 312 312 312 311 310
319 319 316 314 318 318 318 318 319 319 316 317 316 316 316 317 314 316 316 315 317 318 316 312 314 314 315 317 317 317 316 316 317 316 315 314 316 314 313 310 312 312 311 310 310
314 315 316 317 319 319 316 318 317 315 315 316 314 314 313 315 317 317 316 315 314 314 315 312 313 317 317 318 318 317 317 316 316 316 315 315 314 313 312 312 312 311 311 311 310
311 312 315 318 317 317 315 315 315 314 316 314 314 313 314 315 314 314 314 315 314 313 312 313 313 314 316 316 316 312 317 316 316 315 315 313 312 311 311 312 312 311 311 310 309
Wind_Speed
6 6 5 3 6 8 8 7 6 7 7 8 7 5 5 6 5 5 2 4 6 7 6 7 6 8 11 8 7 6 4 2 4 4 4 6 4 3 5 9 8 8 12 14 24
6 6 4 5 9 9 8 7 8 7 6 6 5 2 5 12 6 9 11 8 7 9 9 13 13 14 7 5 3 4 4 3 1 3 2 3 4 4 3 10 14 19 14 11 22
6 5 5 9 10 9 8 9 9 7 5 4 2 2 7 12 6 8 10 10 12 14 15 19 18 15 6 11 8 6 5 3 2 8 9 7 11 5 3 3 19 22 16 9 5
6 5 8 11 10 9 8 9 8 5 2 1 2 4 9 7 2 5 11 14 17 17 12 17 12 10 4 5 4 4 0 5 5 6 3 1 3 5 6 7 23 21 19 13 8
6 6 8 10 9 7 7 7 6 4 0 2 4 7 9 4 2 4 10 10 10 15 18 14 16 12 5 6 4 4 4 6 5 2 0 2 3 2 3 14 18 17 15 10 13
6 5 7 8 6 5 4 4 4 3 1 3 4 7 8 3 3 7 8 11 8 12 14 13 12 15 4 5 3 2 3 7 4 2 1 2 2 4 7 4 15 21 19 14 9
5 5 6 6 4 1 1 1 2 2 1 2 6 11 5 2 1 2 2 6 8 12 14 14 11 10 13 8 13 7 8 7 9 4 4 4 6 5 15 10 13 20 17 15 14
3 4 4 4 2 1 0 1 1 1 2 5 7 10 7 4 4 3 6 8 4 8 15 14 13 12 4 8 8 4 5 5 10 5 5 5 9 11 19 15 9 18 19 19 19
3 4 4 3 2 1 2 2 2 2 3 7 6 5 5 3 3 1 4 8 8 6 9 11 12 7 6 4 5 6 1 2 8 2 2 3 8 12 23 18 8 20 22 22 22
1 4 5 3 2 1 2 3 6 3 4 6 7 7 4 6 4 3 2 7 13 16 16 7 3 3 4 4 3 3 3 3 3 4 1 3 7 9 18 18 20 17 19 19 23
2 3 4 3 2 0 2 6 10 3 11 8 5 10 7 7 2 4 2 9 12 8 4 9 4 4 5 5 4 3 1 3 4 6 6 1 6 7 16 20 24 32 31 28 23
4 3 4 3 2 4 6 6 7 8 9 18 15 18 13 3 2 7 1 7 7 5 8 8 1 5 8 2 4 7 5 4 4 6 4 8 7 6 10 22 31 26 30 27 18
6 5 6 5 5 5 4 6 10 10 3 12 11 13 10 5 1 5 1 3 3 6 6 2 6 13 7 5 7 3 4 2 3 4 5 6 6 9 11 26 37 46 43 26 9
6 7 8 7 4 8 10 10 8 9 4 6 3 5 11 6 4 9 6 5 5 3 5 3 10 11 8 0 3 3 4 2 6 6 2 3 5 6 5 16 23 28 39 43 26
5 8 5 5 6 12 11 9 9 1 2 3 3 8 12 8 9 3 3 4 4 4 4 6 7 9 7 4 2 1 5 4 2 3 3 7 4 5 7 11 9 13 21 25 27
3 6 3 4 8 11 12 11 2 5 3 2 5 6 4 11 7 9 5 7 4 3 3 4 9 9 4 5 5 3 7 8 6 3 3 2 3 5 3 4 2 8 14 19 19
0 3 3 2 6 11 10 2 5 3 6 3 1 3 4 4 4 6 4 5 2 4 4 5 3 1 15 7 8 10 8 4 5 5 4 4 3 5 5 3 4 8 12 16 18
1 4 5 3 6 11 6 5 5 3 4 1 4 5 1 4 3 3 3 3 8 5 3 3 7 4 8 2 3 2 6 4 4 3 9 4 4 5 2 12 12 13 13 15 12
2 5 4 1 5 7 1 4 3 3 4 6 7 6 6 8 5 5 5 4 5 4 5 2 4 7 7 4 2 6 4 4 3 3 2 4 2 4 10 8 14 11 11 15 15
4 2 4 1 2 0 5 3 2 3 2 4 4 5 5 7 5 5 4 5 4 5 7 0 3 4 6 8 6 2 3 5 4 5 6 4 2 4 10 8 9 12 7 11 13
4 1 3 2 3 1 3 3 4 7 6 4 2 3 4 3 4 5 4 4 4 2 7 2 4 6 5 3 3 7 6 4 2 3 1 4 4 5 5 5 7 11 8 15 16
4 2 2 2 1 2 1 3 2 4 9 7 5 5 3 3 4 5 4 3 3 2 2 0 4 1 5 9 3 3 2 3 2 6 4 3 5 6 9 12 18 15 21 23 23
10 3 2 5 2 3 5 3 4 2 3 3 3 3 2 3 3 4 6 5 4 2 5 3 2 4 8 7 7 6 8 8 3 3 4 3 5 7 10 10 16 20 22 22 28
6 4 4 8 5 4 3 2 2 4 6 3 3 3 5 4 3 3 5 4 7 2 7 5 3 6 6 8 4 6 10 9 4 2 3 6 7 8 8 10 16 23 21 29 31
7 4 5 3 5 4 2 2 2 3 4 6 5 6 3 2 6 3 5 5 6 5 3 4 3 5 6 7 7 10 10 6 3 1 3 5 6 6 6 9 20 21 28 27 31
5 5 7 6 9 3 2 3 4 2 3 2 4 2 4 3 2 3 1 2 5 1 2 2 3 2 4 6 8 12 5 2 2 3 5 6 12 3 17 22 20 27 30 35 32
8 2 3 5 6 3 3 1 3 5 6 9 4 3 3 3 7 14 17 13 10 3 2 1 2 2 4 5 7 4 1 2 3 5 6 7 6 6 16 21 24 29 33 32 28
Wind_Direction
11 10 21 53 112 119 113 102 106 115 123 130 124 91 58 19 351 345 24 53 61 38 20 344 327 334 304 281 257 232 63 299 299 32 349 11 114 88 88 123 126 128 145 93 93
11 20 42 100 121 116 102 96 109 123 127 130 125 85 15 7 33 54 85 86 40 7 353 341 339 338 310 276 233 115 104 243 146 115 67 30 60 43 27 100 129 131 133 121 101
26 43 80 117 122 112 97 95 108 122 134 149 164 351 356 7 59 79 70 43 10 351 349 344 331 335 295 271 249 169 176 192 14 87 54 23 14 28 124 36 158 140 141 135 132
47 66 107 123 123 111 98 98 109 118 141 226 301 341 344 360 116 110 47 26 21 5 6 17 15 336 331 327 174 82 96 134 150 93 73 45 26 360 48 154 149 142 146 141 164
56 83 119 131 125 111 98 94 104 118 225 306 330 348 13 4 61 145 44 20 17 24 26 12 19 2 359 316 12 72 15 349 153 104 46 136 321 220 273 158 159 161 170 163 161
64 92 127 139 129 113 96 84 82 94 338 328 348 351 350 360 78 83 54 34 0 7 6 10 350 346 336 339 36 358 16 320 259 245 235 288 270 346 269 291 184 171 175 174 184
83 104 129 149 148 129 118 60 40 49 356 347 337 348 339 91 198 358 30 317 343 4 356 12 352 351 341 341 354 349 355 342 299 273 197 158 327 274 286 284 307 198 179 179 185
112 123 138 156 175 193 304 338 338 328 298 304 330 334 305 225 241 281 340 6 285 315 328 320 339 326 297 312 349 20 56 346 284 186 245 146 255 268 281 288 301 206 196 210 206
151 157 158 167 185 254 290 302 310 249 258 281 310 336 309 259 207 72 339 5 347 327 313 303 290 296 298 74 9 11 251 286 319 80 78 128 249 285 296 311 303 202 208 216 225
133 178 177 175 173 267 312 355 341 328 265 272 270 301 264 248 159 217 280 330 327 318 322 349 191 18 17 85 204 241 309 301 289 301 276 336 308 324 321 320 308 293 270 261 245
89 169 183 171 153 2 59 19 18 30 336 272 278 259 5 153 259 265 244 328 358 351 13 324 71 272 252 220 164 173 218 294 289 357 22 179 232 272 333 334 324 308 301 297 268
65 119 154 146 113 75 59 33 28 326 305 297 283 267 281 188 292 294 63 37 15 339 360 11 340 339 295 67 47 32 54 355 312 350 46 330 317 306 327 358 354 329 307 283 233
58 103 129 127 107 45 4 15 19 5 289 293 255 244 237 278 243 101 98 29 12 2 351 179 260 343 15 4 62 53 80 342 247 327 342 356 342 357 24 40 36 31 41 49 58
58 108 119 113 75 15 38 351 350 316 55 278 187 250 222 229 27 139 67 59 8 321 329 309 325 341 339 309 108 27 297 330 341 38 324 18 287 333 34 34 39 41 46 45 48
64 119 110 82 36 10 359 17 334 205 15 196 192 165 179 176 158 195 114 142 191 237 69 277 309 324 3 3 7 279 30 0 300 339 53 341 66 271 2 22 9 33 59 59 57
58 161 136 57 33 4 341 314 317 48 270 250 148 181 144 218 191 158 201 218 265 80 19 21 80 50 4 340 30 322 17 28 24 61 50 214 104 325 5 280 302 42 48 46 52
12 177 217 89 336 339 339 355 53 111 308 27 286 185 224 249 180 175 169 16 112 71 356 347 359 325 23 7 360 42 43 341 358 356 234 307 39 236 232 237 74 54 56 35 31
323 190 175 211 333 3 357 55 67 321 358 354 345 355 345 312 108 144 147 99 19 69 65 50 330 29 357 357 297 355 124 148 287 245 283 292 224 187 334 60 49 49 41 33 44
9 169 204 202 347 346 3 66 206 28 347 357 350 31 353 1 55 48 55 57 37 40 121 63 280 330 3 344 71 322 7 216 226 235 325 212 7 216 50 35 27 63 44 17 5
17 238 293 198 312 305 71 238 84 70 6 39 50 42 31 2 44 27 42 350 92 58 86 193 328 285 322 357 35 96 279 7 6 332 306 342 340 264 1 351 350 346 9 18 9
26 32 120 270 268 19 134 231 107 63 57 85 57 12 65 23 35 7 43 347 101 108 90 76 115 294 9 18 26 339 8 7 135 156 253 289 259 16 25 301 332 343 360 6 14
38 33 78 272 59 45 158 157 90 57 43 34 65 66 85 43 43 26 37 174 95 88 91 169 130 297 267 295 223 239 263 149 138 284 239 204 258 59 40 20 15 8 350 345 337
348 308 252 285 102 342 322 53 70 62 50 43 66 75 106 35 22 2 17 82 146 152 167 186 13 359 348 351 356 355 336 326 245 90 228 172 263 29 5 13 349 331 329 332 327
357 15 17 70 51 110 17 17 118 65 88 77 14 33 65 38 58 326 24 52 18 59 131 100 124 152 208 232 257 296 314 309 133 141 234 240 288 297 339 329 307 324 318 315 317
11 37 15 310 341 344 3 283 66 116 57 34 68 71 56 42 354 35 1 350 25 110 80 97 195 200 241 259 282 300 311 38 22 190 234 270 255 277 291 280 296 312 309 306 312
22 6 355 300 315 302 39 334 131 83 97 20 93 103 79 106 143 265 18 244 244 324 84 33 269 226 275 274 284 296 62 348 18 343 280 292 308 235 320 318 313 313 311 309 310
29 13 326 321 335 18 233 143 146 120 88 93 108 83 26 203 277 272 260 240 228 213 119 240 161 48 258 290 315 334 229 69 298 289 278 292 290 304 322 319 311 310 308 306 311